Regional Weather Roundup
Issued by NWS

Home | Current Version | Previous Version | Text Only | Print | Product List | Glossary Off
Versions: 1 2 3 4 5 6 7 8 9 10 11 12 13 14 15 16 17 18 19 20 21 22 23 24 25 26 27 28 29 30 31 32 33 34 35 36 37 38 39 40 41 42 43 44 45 46 47 48 49 50

000
ASUS45 KBOU 220807
RWRCO

WEATHER ROUNDUP FOR COLORADO
NATIONAL WEATHER SERVICE DENVER/BOULDER CO
100 AM MST WED FEB 22 2017

NOTE: "FAIR" INDICATES FEW OR NO CLOUDS BELOW 12000 FEET WITH NO
SIGNIFICANT WEATHER AND/OR OBSTRUCTIONS TO VISIBILITY.

COZ001>005-013-030-031-220900-
...NORTHWEST COLORADO...

CITY           SKY/WX    TMP DP  RH WIND       PRES   REMARKS
CRAIG          CLOUDY    34  26  72 W8        30.01R WCI  27
HAYDEN         FAIR      32  25  74 SW13      29.98R WCI  22
MEEKER         FAIR      48  29  47 SW20G26   29.99S
MOUNT WERNER   NOT AVBL
STEAMBOAT SPGS FAIR      39  28  64 W6        29.97R
WALDEN         NOT AVBL
$$

COZ006>008-011-220900-
...WEST CENTRAL VALLEYS...

CITY           SKY/WX    TMP DP  RH WIND       PRES   REMARKS
GRAND JUNCTION FAIR      50  34  54 S3        29.99F
MONTROSE       FAIR      52  30  43 SW17G26   30.04F
EAGLE          FAIR      46  25  43 SW16      29.99F
RIFLE          FAIR      47  31  53 W12       29.97F
DELTA          FAIR      51  34  51 S3        30.05R
NUCLA          FAIR      48  34  57 S13G24    30.12S
$$

COZ017>023-064>068-220900-
...SOUTHWEST COLORADO...

CITY           SKY/WX    TMP DP  RH WIND       PRES   REMARKS
DURANGO        MOCLDY    43  33  68 W3        30.19F
CORTEZ         FAIR      44  38  79 S10       30.16F
PAGOSA SPRINGS CLOUDY    41  32  70 S5        30.23F
TELLURIDE      FAIR      42  11  28 W13G26    30.21F
WOLF CREEK PAS HVY SNOW  25  25 100 S29G43    30.28F VSB<1/4 WCI   8
$$

COZ009-010-012-014-032>034-037-058>063-220900-
...CENTRAL COLORADO...

CITY           SKY/WX    TMP DP  RH WIND       PRES   REMARKS
ASPEN          FAIR      43  19  38 VRB3      30.01F
BUENA VISTA    FAIR      44  14  29 W15G23    30.05F
COPPER MTN     LGT SNOW  30  12  47 W12G36    30.12S WCI  21
BERTHOUD PASS  MOCLDY    21  12  68 W38G58    30.05F WCI   1
COTTONWOOD PAS FAIR      41  10  28 SW15G35   30.09F
GUNNISON       FAIR      24  21  88 CALM      30.11
KREMMLING      FAIR      46  23  39 SW18G24   29.99F
LEADVILLE      MOCLDY    34  10  37 W12G21    30.06F WCI  25
MONARCH PASS   FAIR      25  18  74 SW33G41   30.26F WCI   7
SALIDA         FAIR      44  25  46 SW8       30.14F
SUNLIGHT       NOT AVBL
WILKERSON PASS FAIR      28  14  54 S14G25    30.13F WCI  17
$$

COZ069>075-220900-
...SAN LUIS VALLEY/SANGRE DE CRISTO MOUNTAINS...

CITY           SKY/WX    TMP DP  RH WIND       PRES   REMARKS
ALAMOSA        FAIR      36  28  73 E7        30.16F
LA VETA PASS   CLOUDY    34  21  60 N16G29    30.23S WCI  23
SAGUACHE       FAIR      43  23  45 W21G29    30.10F
$$

COZ035-036-038>040-220900-
...NORTHERN COLORADO FRONT RANGE...

CITY           SKY/WX    TMP DP  RH WIND       PRES   REMARKS
DENVER INTL AP FAIR      53  15  22 SW20      29.87F
DMNS CITY PARK   N/A     54  14  21 SE9       29.89S
AURORA         MOCLDY    51  15  23 S16       29.90F
FRONT RANGE AP FAIR      54  18  24 SW21      29.89F
ERIE MUNI ARPT FAIR      43  15  32 SW6       29.87F
BOULDER MUN AP FAIR      46  16  29 SW6       29.87F
CENTENNIAL     FAIR      50  14  23 S5        29.92F
BROOMFIELD     FAIR      48  18  29 W9        29.90S
FORT COLLINS   FAIR      56  20  24 W14G24    29.85F
LONGMONT       FAIR      57  15  19 W9G24     29.88F
$$

COZ041-046-047-076>085-087-088-220900-
...PIKES PEAK/PALMER DIVIDE AND SOUTHERN FOOTHILLS...

CITY           SKY/WX    TMP DP  RH WIND       PRES   REMARKS
COLO. SPRINGS  FAIR      53  15  22 W5        29.99F
A. F. ACADEMY  FAIR      52  13  21 W14       29.97F
SCHRIEVER AFB  FAIR      52  19  27 SW26G36   29.96F
ELLICOTT       FAIR     N/A N/A N/A W10       29.96F
FALCON         FAIR      49  14  25 SW15      29.99F
FORT CARSON    FAIR      55  21  26 SW24      29.96F
LIMON          FAIR      54  13  19 W15       29.89F
MONUMENT HILL  FAIR      48  14  25 SW30G43   29.96F
TRINIDAD       FAIR      53  17  24 SW22      29.98F
$$

COZ042>045-048>051-090-091-220900-
...NORTHEAST COLORADO...

CITY           SKY/WX    TMP DP  RH WIND       PRES   REMARKS
GREELEY ARPT   FAIR      57  16  20 W22G28    29.84F
AKRON          FAIR      52  12  20 W16G25    29.81F
BURLINGTON     FAIR      54  12  18 NW13      29.86F
WRAY           NOT AVBL
STERLING       FAIR      37  19  48 CALM      29.78F
HOLYOKE        FAIR      37  21  52 NW3       29.79F
FORT MORGAN    FAIR      54  13  20 W17G26    29.81F
$$

COZ086-089-092>099-220900-
...SOUTHEAST COLORADO...

CITY           SKY/WX    TMP DP  RH WIND       PRES   REMARKS
PUEBLO         FAIR      49  22  34 NW8       29.93F
LA JUNTA       FAIR      54  20  26 SW16      29.92F
LAMAR          FAIR      62  19  19 W21G30    29.86F
SPRINGFIELD      N/A     51   7  16 W15       29.93F
$$



USA.gov is the U.S. government's official web portal to all federal, state and local government web resources and services.